[[{"header":{"parameterUnit":"m.s-1","parameterCategory":1,"la1":30.2991,"la2":30.254,"lo1":-89.0895,"lo2":-89.0444,"dy":0.0017,"dx":0.0017,"nx":28,"ny":28,"refTime":"2024-04-26T09:00:00:Z","depth":0,"parameterNumber":2,"parameterNumberName":"U-component_of_WINDS"},"data":[0,0,0,0,0,0,0,0,0,0,0,0,0,0,0,0,0,0,0,0,0,0,0,0,0,0,0,0,0,0,0,0,0,0,0,0,0,0,0,0,0,0,0,0,0,0,0,0,0,0,0,0,0,0,0,0,0,0,-5.568,-5.5681,0,-5.579,-5.5792,-5.5793,-5.5766,-5.5763,-5.5761,-5.5759,-5.5869,-5.5874,-5.5879,0,0,0,0,0,0,0,0,0,0,0,0,0,-5.5443,-5.5448,-5.568,-5.5681,-5.5683,-5.579,-5.5792,-5.5793,-5.5766,-5.5763,-5.5761,-5.5758,-5.5867,-5.5873,-5.5879,0,0,0,0,0,0,0,0,0,0,0,0,0,-5.5549,-5.5449,-5.568,-5.5682,-5.5683,-5.579,-5.5792,-5.5793,-5.5767,-5.5763,-5.576,-5.5757,-5.5865,-5.5873,-5.588,-5.5989,0,0,-5.5902,-5.5906,0,0,0,0,0,0,0,0,-5.5543,-5.5558,-5.568,-5.5682,-5.5684,-5.5761,-5.5748,-5.5859,-5.5767,-5.5735,-5.5759,-5.5756,-5.5835,-5.5845,-5.5873,-5.5995,-5.5999,-5.5903,-5.5907,-5.5911,-5.5913,0,0,0,0,0,0,0,-5.5536,-5.5553,-5.5723,-5.5682,-5.5684,-5.5677,-5.5688,-5.5769,-5.5802,-5.5737,-5.5736,-5.5749,-5.5836,-5.5866,-5.5875,-5.6001,-5.5903,-5.5909,-5.5914,-5.5917,-5.6218,-5.6221,0,0,0,0,0,0,-5.5527,-5.5547,-5.572,-5.5727,-5.5604,-5.5684,-5.5697,-5.5739,-5.5801,-5.5807,-5.5752,-5.5748,-5.5855,-5.5866,-5.5879,-5.601,-5.5911,-5.5917,-5.5922,-5.6214,-5.6219,-5.6223,0,0,0,0,0,0,-5.5522,-5.5543,-5.5715,-5.5636,-5.5658,-5.5691,-5.5739,-5.5743,-5.5773,-5.5812,-5.5817,-5.5777,-5.5853,-5.5868,-5.5962,-5.6013,-5.5921,-5.5927,-5.621,-5.6216,-5.6221,-5.6274,0,0,0,0,0,0,-5.5516,-5.5541,-5.5584,-5.5638,-5.5662,-5.5798,-5.5743,-5.5748,-5.5786,-5.5782,-5.5836,-5.5842,-5.5851,-5.5951,-5.597,-5.6022,-5.5933,-5.6206,-5.6213,-5.6219,-5.6268,-5.6281,-5.6292,0,0,0,0,0,-5.5507,-5.5594,-5.5586,-5.5607,-5.5716,-5.5801,-5.5815,-5.5824,-5.5791,-5.5833,-5.5858,-5.5841,-5.6006,-5.5961,-5.5982,-5.6037,-5.6202,-5.6211,-5.6219,-5.6262,-5.6278,-5.6291,0,0,0,0,0,0,-5.5543,-5.5601,-5.5593,-5.5699,-5.5746,-5.5796,-5.5849,-5.5841,-5.5896,-5.5889,-5.5898,-5.5911,-5.6006,-5.6032,-5.5981,-5.6146,-5.6099,-5.6112,-5.6126,-5.6141,-5.6152,-5.6143,-5.5939,0,0,0,0,0,-5.5564,-5.5629,-5.5676,-5.5765,-5.5789,-5.5816,-5.5853,-5.5857,-5.5904,-5.5923,-5.5955,-5.6001,-5.6063,-5.6104,-5.6164,-5.6273,-5.6283,-5.6321,-5.6333,-5.6342,-5.6352,-5.6411,-5.6427,-5.6249,-5.6249,-5.6249,0,0,-5.5607,-5.5646,-5.5686,-5.5773,-5.5809,-5.5876,-5.5832,-5.5904,-5.5952,-5.5934,-5.6024,-5.605,-5.6102,-5.6204,-5.625,-5.6227,-5.6404,-5.6353,-5.636,-5.6364,-5.6421,-5.6437,-5.6452,-5.6255,-5.6254,-5.6253,0,0,-5.5717,-5.5755,-5.5833,-5.5871,-5.5927,-5.5944,-5.5963,-5.6016,-5.6032,-5.6124,-5.6111,-5.6169,-5.6277,-5.6314,-5.6347,-5.6475,-5.646,-5.6495,-5.6555,-5.6612,-5.6626,-5.6639,-5.6682,-5.6698,-5.6505,-5.6505,-5.6505,0,-5.5762,-5.5862,-5.5874,-5.5947,-5.5985,-5.5974,-5.6053,-5.6089,-5.6161,-5.6187,-5.6162,-5.6296,-5.6331,-5.6441,-5.6472,-5.65,-5.6521,-5.6486,-5.6624,-5.6636,-5.6648,-5.6689,-5.6706,-5.6508,-5.6508,-5.6508,-5.6507,0,-5.5915,-5.5984,-5.6041,-5.6112,-5.6157,-5.6233,-5.6255,-5.6299,-5.63,-5.632,-5.6413,-5.6455,-5.6522,-5.6549,-5.655,-5.666,-5.6644,-5.6621,-5.6573,-5.6668,-5.6707,-5.6724,-5.6514,-5.6512,-5.6511,-5.651,0,0,-5.6048,-5.6126,-5.6147,-5.6179,-5.6241,-5.6294,-5.637,-5.6437,-5.6474,-5.6526,-5.6588,-5.668,-5.666,-5.6698,-5.6703,-5.6754,-5.685,-5.6725,-5.6726,-5.6744,-5.6972,-5.6986,-5.7005,-5.6843,-5.6846,-5.6849,-5.6967,0,-5.6162,-5.6296,-5.6309,-5.6428,-5.6492,-5.6483,-5.6548,-5.6593,-5.6615,-5.6672,-5.6696,-5.676,-5.6729,-5.6752,-5.6802,-5.6828,-5.6896,-5.682,-5.6899,-5.6901,-5.6883,-5.7026,-5.7041,-5.7151,-5.6982,-5.6985,-5.6987,0,-5.6313,-5.6369,-5.6495,-5.6548,-5.6576,-5.6634,-5.6697,-5.6753,-5.6803,-5.6816,-5.6859,-5.6858,-5.6935,-5.6888,-5.6993,-5.6941,-5.6975,-5.6993,-5.6997,-5.7002,-5.6947,-5.7032,-5.7186,-5.7201,-5.7012,-5.701,-5.7008,0,-5.6395,-5.6503,-5.6591,-5.662,-5.6685,-5.6726,-5.6755,-5.6803,-5.6843,-5.6898,-5.6924,-5.6987,-5.7021,-5.707,-5.7086,-5.705,-5.7191,-5.7145,-5.7201,-5.7201,-5.7228,-5.7226,-5.7387,-5.7255,-5.7255,-5.7255,-5.7254,0,-5.652,-5.6596,-5.6629,-5.6683,-5.6769,-5.6784,-5.6868,-5.6895,-5.6938,-5.6997,-5.6994,-5.7049,-5.7068,-5.7127,-5.714,-5.7225,-5.7241,-5.7251,-5.7253,-5.725,-5.7248,-5.727,-5.7261,-5.7259,-5.7258,-5.7257,-5.7256,0,-5.6624,-5.665,-5.6745,-5.68,-5.6816,-5.6876,-5.6923,-5.6975,-5.6997,-5.7071,-5.709,-5.7124,-5.7192,-5.7214,-5.7297,-5.7306,-5.7404,-5.7401,-5.7387,-5.7386,-5.7441,-5.7434,-5.7619,-5.7643,-5.7498,-5.7499,-5.75,0,-5.67,-5.6759,-5.6821,-5.6861,-5.6891,-5.6956,-5.6996,-5.7015,-5.7057,-5.712,-5.7165,-5.7233,-5.7288,-5.7398,-5.743,-5.7493,-5.749,-5.755,-5.7499,-5.7493,-5.7488,-5.7483,-5.7488,-5.7558,-5.756,-5.7561,-5.7562,0,-5.6833,-5.6843,-5.6903,-5.6967,-5.7017,-5.7068,-5.7118,-5.715,-5.7175,-5.7224,-5.7294,-5.7337,-5.7423,-5.749,-5.7555,-5.7584,-5.7577,-5.7579,-5.7595,-5.759,-5.7579,-5.7584,-5.741,-5.7574,-5.7572,-5.7572,-5.7571,-5.7571,-5.6924,-5.6976,-5.7027,-5.7094,-5.7134,-5.718,-5.7232,-5.7261,-5.7321,-5.7392,-5.7399,-5.7475,-5.7525,-5.7611,-5.7644,-5.7703,-5.7686,-5.7709,-5.7715,-5.772,-5.7723,-5.7572,-5.7715,-5.7715,-5.7715,-5.7715,-5.7714,0,-5.7054,-5.7088,-5.7149,-5.7219,-5.7271,-5.7263,-5.7318,-5.7362,-5.7429,-5.7477,-5.7532,-5.7613,-5.7679,-5.7716,-5.7782,-5.7822,-5.7821,-5.7839,-5.7834,-5.7841,-5.7736,-5.7714,-5.7839,-5.7839,-5.7839,-5.7838,-5.7838,-5.7838,-5.7128,-5.7215,-5.7231,-5.7337,-5.737,-5.7445,-5.7477,-5.752,-5.7558,-5.7649,-5.7704,-5.7729,-5.7772,-5.7841,-5.7901,-5.7911,-5.7934,-5.7953,-5.796,-5.7861,-5.7848,-5.7836,-5.7815,-5.7959,-5.7959,-5.806,-5.8061,-5.8061]},{"header":{"parameterUnit":"m.s-1","parameterCategory":1,"la1":30.2991,"la2":30.254,"lo1":-89.0895,"lo2":-89.0444,"dy":0.0017,"dx":0.0017,"nx":28,"ny":28,"refTime":"2024-04-26T09:00:00:Z","depth":0,"parameterNumber":3,"parameterNumberName":"V-component_of_WINDS"},"data":[0,0,0,0,0,0,0,0,0,0,0,0,0,0,0,0,0,0,0,0,0,0,0,0,0,0,0,0,0,0,0,0,0,0,0,0,0,0,0,0,0,0,0,0,0,0,0,0,0,0,0,0,0,0,0,0,0,0,5.0871,5.087,0,5.0797,5.0796,5.0795,5.069,5.0688,5.0687,5.0685,5.0605,5.0605,5.0604,0,0,0,0,0,0,0,0,0,0,0,0,0,5.092,5.092,5.0871,5.087,5.0869,5.0797,5.0796,5.0795,5.069,5.0688,5.0686,5.0684,5.0605,5.0605,5.0604,0,0,0,0,0,0,0,0,0,0,0,0,0,5.0878,5.092,5.0871,5.0808,5.0802,5.0797,5.0796,5.0795,5.0691,5.0688,5.0685,5.0683,5.0605,5.0605,5.0604,5.0653,0,0,5.0602,5.0602,0,0,0,0,0,0,0,0,5.088,5.0876,5.0819,5.0813,5.0806,5.075,5.0784,5.0747,5.0692,5.0733,5.0685,5.0682,5.0655,5.065,5.0642,5.065,5.0646,5.0602,5.0601,5.0601,5.0601,0,0,0,0,0,0,0,5.0883,5.0878,5.0841,5.0818,5.081,5.0783,5.0774,5.0776,5.071,5.0729,5.0721,5.0714,5.0651,5.0643,5.0639,5.0645,5.0602,5.0601,5.0601,5.06,5.069,5.0693,0,0,0,0,0,0,5.0896,5.0882,5.0844,5.0839,5.0837,5.0785,5.0775,5.077,5.071,5.0698,5.0717,5.071,5.0645,5.064,5.0636,5.069,5.0601,5.06,5.06,5.0687,5.0691,5.0694,0,0,0,0,0,0,5.0897,5.0894,5.0847,5.0858,5.085,5.0787,5.0783,5.077,5.0762,5.07,5.0687,5.0721,5.0643,5.0637,5.065,5.0686,5.06,5.0599,5.0684,5.0688,5.0692,5.0798,0,0,0,0,0,0,5.0899,5.0895,5.0913,5.086,5.085,5.0863,5.0785,5.0771,5.0762,5.0752,5.0701,5.0689,5.0641,5.0652,5.065,5.0683,5.0599,5.068,5.0686,5.0691,5.0791,5.0806,5.0818,0,0,0,0,0,5.0901,5.0945,5.0915,5.0911,5.0872,5.0865,5.086,5.0804,5.0765,5.0783,5.0743,5.0691,5.0683,5.0654,5.0651,5.0685,5.0678,5.0684,5.069,5.0785,5.0803,5.0818,0,0,0,0,0,0,5.1002,5.0937,5.0902,5.093,5.0904,5.0848,5.0868,5.0824,5.0808,5.0799,5.0729,5.0718,5.074,5.0714,5.0683,5.073,5.0672,5.0678,5.0746,5.0762,5.0775,5.078,5.0598,0,0,0,0,0,5.1029,5.1029,5.0971,5.1001,5.0991,5.0932,5.0927,5.0887,5.0856,5.0845,5.0806,5.0778,5.0769,5.0764,5.0752,5.0788,5.0775,5.081,5.0823,5.0834,5.0839,5.0857,5.0871,5.0714,5.0714,5.0714,0,0,5.1081,5.1045,5.105,5.1021,5.0996,5.0998,5.0923,5.0928,5.0929,5.0845,5.0855,5.0826,5.079,5.0815,5.0824,5.0794,5.0881,5.0842,5.0852,5.0851,5.0865,5.088,5.0893,5.0719,5.0718,5.0717,0,0,5.1178,5.1151,5.1174,5.1151,5.1115,5.1077,5.1083,5.1033,5.1011,5.1021,5.0958,5.0958,5.0944,5.0921,5.0908,5.0999,5.095,5.0997,5.1066,5.1083,5.1096,5.1106,5.1139,5.1151,5.1003,5.1003,5.1004,0,5.1247,5.1249,5.1191,5.12,5.1189,5.1116,5.1138,5.1118,5.108,5.1074,5.1041,5.1023,5.0994,5.1013,5.1035,5.1027,5.1031,5.1002,5.1099,5.1109,5.1118,5.1148,5.116,5.1009,5.1009,5.1008,5.1007,0,5.1336,5.1338,5.136,5.1327,5.1319,5.1335,5.1279,5.1278,5.1239,5.1204,5.1215,5.1178,5.1157,5.1159,5.112,5.1173,5.1155,5.1112,5.1053,5.114,5.1167,5.1178,5.1018,5.1016,5.1014,5.1012,0,0,5.1492,5.1429,5.1438,5.1422,5.1379,5.1379,5.1392,5.1374,5.1374,5.1351,5.1359,5.1351,5.1311,5.1296,5.1254,5.127,5.1345,5.1224,5.1222,5.1248,5.1401,5.1433,5.1447,5.1313,5.1315,5.1317,5.1403,0,5.158,5.1599,5.1548,5.1579,5.158,5.1512,5.1523,5.1497,5.1465,5.1461,5.1425,5.142,5.1368,5.1359,5.1372,5.1333,5.1374,5.1326,5.1319,5.132,5.133,5.1461,5.1495,5.1578,5.1414,5.1415,5.1417,0,5.1684,5.1668,5.1701,5.1656,5.1655,5.1666,5.1646,5.1643,5.1613,5.1588,5.1574,5.1526,5.1535,5.148,5.1491,5.146,5.1454,5.1435,5.1437,5.1433,5.1373,5.146,5.1603,5.1615,5.1433,5.1431,5.143,0,5.1795,5.1781,5.1799,5.1788,5.1737,5.1746,5.1725,5.1693,5.1686,5.1668,5.1663,5.1646,5.1637,5.1625,5.1574,5.1539,5.1592,5.1532,5.1571,5.1572,5.1583,5.1583,5.1727,5.1582,5.1582,5.1582,5.1582,0,5.1897,5.1919,5.1848,5.1859,5.1882,5.1823,5.1847,5.1819,5.1791,5.1795,5.1735,5.1739,5.1672,5.167,5.163,5.1645,5.1642,5.1622,5.161,5.1626,5.1629,5.1621,5.1613,5.1585,5.1584,5.1584,5.1583,0,5.2024,5.1977,5.1991,5.1943,5.1931,5.195,5.1908,5.1916,5.1881,5.1887,5.1885,5.183,5.1824,5.1773,5.1754,5.1728,5.1758,5.1736,5.1769,5.1761,5.1802,5.1799,5.1945,5.1961,5.1807,5.1809,5.181,0,5.2092,5.2107,5.2061,5.206,5.2042,5.2041,5.2034,5.1978,5.1973,5.1941,5.1953,5.1942,5.193,5.1924,5.1882,5.1868,5.1844,5.1897,5.1842,5.1858,5.1844,5.1844,5.1845,5.1908,5.191,5.1911,5.1913,0,5.2217,5.2194,5.2187,5.2172,5.2166,5.2151,5.2133,5.2135,5.2073,5.2071,5.2065,5.2056,5.2039,5.2029,5.2008,5.1985,5.1939,5.1931,5.1939,5.1954,5.1973,5.1963,5.1799,5.1927,5.1926,5.1925,5.1924,5.1923,5.2316,5.2327,5.2297,5.2291,5.2272,5.2256,5.2262,5.2229,5.2223,5.2205,5.2172,5.2171,5.2141,5.2109,5.2091,5.2089,5.2061,5.2073,5.2075,5.2079,5.2088,5.1975,5.2085,5.2084,5.2084,5.2083,5.2083,0,5.2438,5.2416,5.2411,5.2388,5.2384,5.2343,5.2321,5.232,5.232,5.2297,5.2287,5.2281,5.2271,5.223,5.2216,5.2222,5.22,5.222,5.2218,5.2214,5.2113,5.2107,5.2238,5.2238,5.2238,5.2238,5.2238,5.2238,5.2501,5.2518,5.2491,5.2498,5.2475,5.2474,5.2466,5.2451,5.2432,5.2428,5.2421,5.2394,5.2364,5.2347,5.2337,5.2325,5.2322,5.2349,5.233,5.2236,5.2221,5.2207,5.2201,5.2349,5.2349,5.2431,5.2432,5.2432]}]]